Regional Weather Roundup
Issued by NWS Sioux Falls, SD

Home | Current Version | Previous Version | Graphics & Text | Print | Product List | Glossary On
Versions: 1 2 3 4 5 6 7 8 9 10 11 12 13 14 15 16 17 18 19 20 21 22 23 24 25 26 27 28 29 30 31 32 33 34 35 36 37 38 39 40 41 42 43 44 45 46 47 48 49 50
000
ASUS43 KFSD 220602
RWRFSD

WEATHER ROUNDUP FOR SE SOUTH DAKOTA/SW MINNESOTA/NW IOWA
NATIONAL WEATHER SERVICE SIOUX FALLS SD
100 AM CDT SUN APR 22 2018

NOTE: "FAIR" INDICATES FEW OR NO CLOUDS BELOW 12,000 FEET WITH NO
SIGNIFICANT WEATHER AND OR OBSTRUCTIONS TO VISIBILITY.


SDZ038>040-050-052>070-220700-
SOUTHEAST SOUTH DAKOTA

CITY           SKY/WX    TMP DP  RH WIND       PRES   REMARKS
BROOKINGS      CLEAR     36  30  79 SE10      30.29F
CHAMBERLAIN    MOCLDY    38  38 100 CALM      30.26S
6HR MIN TEMP:  38; 6HR MAX TEMP:  50;

HURON            N/A     38  32  79 SE8       30.28S
6HR MIN TEMP:  37; 6HR MAX TEMP:  52;

MADISON        CLOUDY    34  34 100 E3        30.29S
MITCHELL       CLOUDY    39  36  89 E3        30.28F
6HR MIN TEMP:  38; 6HR MAX TEMP:  47;

SIOUX FALLS    CLOUDY    40  33  76 NE7       30.29S
6HR MIN TEMP:  39; 6HR MAX TEMP:  49;

WINNER         MOCLDY    39  33  79 S8        30.25S
YANKTON        CLOUDY    45  38  76 E7        30.29R
$$

MNZ071-072-080-081-089-090-097-098-220700-
SOUTHWEST MINNESOTA

CITY           SKY/WX    TMP DP  RH WIND       PRES   REMARKS
FAIRMONT       CLOUDY    40  32  73 SE5       30.33S
JACKSON        CLOUDY    36  32  87 E8        30.32S
LUVERNE        CLOUDY    37  32  81 E3        30.31S
MARSHALL       CLEAR     35  30  82 CALM      30.33S
6HR MIN TEMP:  34; 6HR MAX TEMP:  44;

MONTEVIDEO     CLEAR     37  32  81 CALM      30.33S
PIPESTONE      CLEAR    N/A N/A N/A E6        30.30S
REDWOOD FALLS  CLEAR     38  33  82 CALM      30.33S
TRACY          CLEAR     40  32  72 S3        30.32S
WINDOM         CLOUDY    37  21  52 CALM      30.32S
WORTHINGTON    CLOUDY    35  31  85 E7        30.32R WCI  29
$$

IAZ001>003-012>014-020>022-031-032-NEZ013-014-SDZ071-220700-
NORTHWEST IOWA

CITY           SKY/WX    TMP DP  RH WIND       PRES   REMARKS
DENISON        CLOUDY    46  30  53 E12G17    30.28S
ESTHERVILLE    CLOUDY    34  31  88 CALM      30.32R
LE MARS        CLOUDY    41  37  87 N3        30.29R
ORANGE CITY    MOCLDY    43  39  87 E6        30.29R
SHELDON          N/A     41  37  87 E7        30.28S
SIOUX CITY     CLOUDY    41  34  76 CALM      30.27S
6HR MIN TEMP:  41; 6HR MAX TEMP:  53;

SPENCER        CLOUDY    44  35  70 E10       30.30S
6HR MIN TEMP:  39; 6HR MAX TEMP:  44;

STORM LAKE     CLOUDY    43  37  81 E10       30.28S
$$

ABBREVIATIONS USED IN REMARKS
   TC - TEMPERATURE IN CELSIUS
  WCI - WIND CHILL INDEX
   HX - HEAT INDEX
  VSB - VISIBILITY




USA.gov is the U.S. government's official web portal to all federal, state and local government web resources and services.